When you browse on this site, cookies collect data to enhance your experience and personalize the content and advertising you see.
Visit our Privacy Policy to learn more. By continuing to use the site, you agree to this use of cookies and data.
  • în România
  • Lista ţărilor
  • Pe 7 zile
  • Temperatura apei
  • Hartă satelitară
  • Meteo pe hartă
  • Widget-uri
  • user-avatar
    Intrare

    Meteo pe oră la Buenos Aires

    Astăzi, 18 Ianuarie, Vineri

    Timp Temperatura Precipitaţii Vânt Presiune Umiditate
    00:00 +20°C° 0.3 mm 6 m/s 765 mmHg 61%
    01:00 +20°C° 0.3 mm 5 m/s 765 mmHg 62%
    02:00 +20°C° 0.3 mm 5 m/s 765 mmHg 64%
    03:00 +19°C° 0.2 mm 5 m/s 765 mmHg 65%
    04:00 +19°C° 0.2 mm 4 m/s 765 mmHg 66%
    05:00 +19°C° 0.2 mm 4 m/s 765 mmHg 68%
    06:00 +19°C° 0 mm 4 m/s 765 mmHg 66%
    07:00 +20°C° 0 mm 4 m/s 765 mmHg 65%
    08:00 +20°C° 0 mm 5 m/s 765 mmHg 63%
    09:00 +22°C° 0 mm 5 m/s 765 mmHg 58%
    10:00 +23°C° 0 mm 5 m/s 764 mmHg 54%
    11:00 +25°C° 0 mm 5 m/s 764 mmHg 49%
    12:00 +26°C° 0.1 mm 5 m/s 764 mmHg 48%
    13:00 +27°C° 0.1 mm 5 m/s 764 mmHg 47%
    14:00 +27°C° 0.1 mm 5 m/s 763 mmHg 45%
    15:00 +27°C° 0 mm 5 m/s 763 mmHg 46%
    16:00 +27°C° 0 mm 5 m/s 763 mmHg 47%
    17:00 +27°C° 0 mm 6 m/s 763 mmHg 47%
    18:00 +26°C° 0 mm 6 m/s 763 mmHg 51%
    19:00 +24°C° 0 mm 6 m/s 763 mmHg 55%
    20:00 +23°C° 0 mm 6 m/s 764 mmHg 58%
    21:00 +23°C° 0 mm 6 m/s 764 mmHg 60%
    22:00 +22°C° 0 mm 6 m/s 765 mmHg 61%
    23:00 +22°C° 0 mm 6 m/s 765 mmHg 63%

    Mâine, 19 Ianuarie, Sâmbătă

    Timp Temperatura Precipitaţii Vânt Presiune Umiditate
    00:00 +22°C° 0 mm 5 m/s 765 mmHg 64%
    01:00 +22°C° 0 mm 5 m/s 765 mmHg 65%
    02:00 +21°C° 0 mm 4 m/s 765 mmHg 66%
    03:00 +21°C° 0.1 mm 4 m/s 765 mmHg 67%
    04:00 +21°C° 0.1 mm 3 m/s 765 mmHg 67%
    05:00 +21°C° 0.1 mm 3 m/s 765 mmHg 67%
    06:00 +21°C° 0 mm 3 m/s 765 mmHg 64%
    07:00 +22°C° 0 mm 3 m/s 766 mmHg 61%
    08:00 +22°C° 0 mm 3 m/s 766 mmHg 58%
    09:00 +25°C° 0 mm 3 m/s 766 mmHg 54%
    10:00 +26°C° 0 mm 4 m/s 765 mmHg 49%
    11:00 +27°C° 0 mm 4 m/s 765 mmHg 45%
    12:00 +27°C° 0 mm 4 m/s 765 mmHg 42%
    13:00 +28°C° 0 mm 4 m/s 764 mmHg 40%
    14:00 +28°C° 0 mm 4 m/s 764 mmHg 37%
    15:00 +28°C° 0 mm 5 m/s 763 mmHg 39%
    16:00 +28°C° 0 mm 5 m/s 763 mmHg 41%
    17:00 +28°C° 0 mm 5 m/s 762 mmHg 43%
    18:00 +27°C° 0 mm 6 m/s 763 mmHg 50%
    19:00 +26°C° 0 mm 6 m/s 763 mmHg 57%
    20:00 +24°C° 0 mm 6 m/s 763 mmHg 64%
    21:00 +24°C° 0 mm 6 m/s 763 mmHg 63%
    22:00 +24°C° 0 mm 7 m/s 764 mmHg 61%
    23:00 +24°C° 0 mm 7 m/s 764 mmHg 60%

    Poimâine, 20 Ianuarie, Duminică

    Timp Temperatura Precipitaţii Vânt Presiune Umiditate
    00:00 +23°C° 0 mm 6 m/s 764 mmHg 62%
    01:00 +23°C° 0 mm 6 m/s 763 mmHg 65%
    02:00 +22°C° 0 mm 6 m/s 763 mmHg 67%
    03:00 +22°C° 0 mm 5 m/s 763 mmHg 67%
    04:00 +21°C° 0 mm 5 m/s 763 mmHg 67%
    05:00 +21°C° 0 mm 5 m/s 763 mmHg 68%
    06:00 +22°C° 0 mm 5 m/s 763 mmHg 65%
    07:00 +22°C° 0 mm 4 m/s 763 mmHg 62%
    08:00 +23°C° 0 mm 4 m/s 763 mmHg 59%
    09:00 +25°C° 0 mm 4 m/s 763 mmHg 53%
    10:00 +26°C° 0 mm 4 m/s 762 mmHg 48%
    11:00 +28°C° 0 mm 4 m/s 762 mmHg 43%
    12:00 +28°C° 0 mm 4 m/s 761 mmHg 41%
    13:00 +29°C° 0 mm 4 m/s 760 mmHg 39%
    14:00 +30°C° 0 mm 3 m/s 759 mmHg 38%
    15:00 +30°C° 0 mm 4 m/s 759 mmHg 39%
    16:00 +30°C° 0 mm 4 m/s 758 mmHg 40%
    17:00 +30°C° 0 mm 4 m/s 758 mmHg 41%
    18:00 +29°C° 0 mm 4 m/s 758 mmHg 46%
    19:00 +29°C° 0 mm 4 m/s 758 mmHg 50%
    20:00 +28°C° 0 mm 4 m/s 758 mmHg 54%
    21:00 +27°C° 0 mm 4 m/s 759 mmHg 57%
    22:00 +27°C° 0 mm 5 m/s 759 mmHg 60%
    23:00 +26°C° 0 mm 6 m/s 759 mmHg 63%

    21 Ianuarie, Luni

    Timp Temperatura Precipitaţii Vânt Presiune Umiditate
    00:00 +26°C° 0 mm 5 m/s 759 mmHg 67%
    01:00 +25°C° 0 mm 5 m/s 758 mmHg 71%
    02:00 +25°C° 0 mm 5 m/s 758 mmHg 74%
    03:00 +23°C° 0 mm 4 m/s 758 mmHg 76%
    04:00 +23°C° 0 mm 4 m/s 758 mmHg 78%
    05:00 +23°C° 0 mm 4 m/s 758 mmHg 79%
    06:00 +25°C° 0 mm 3 m/s 758 mmHg 75%
    07:00 +26°C° 0 mm 3 m/s 758 mmHg 71%
    08:00 +27°C° 0 mm 2 m/s 759 mmHg 67%
    09:00 +29°C° 0 mm 2 m/s 758 mmHg 58%
    10:00 +31°C° 0 mm 1 m/s 758 mmHg 49%
    11:00 +33°C° 0 mm 1 m/s 758 mmHg 40%
    12:00 +34°C° 0 mm 1 m/s 757 mmHg 37%
    13:00 +36°C° 0 mm 2 m/s 756 mmHg 35%
    14:00 +36°C° 0 mm 2 m/s 756 mmHg 32%
    15:00 +36°C° 0 mm 3 m/s 756 mmHg 32%
    16:00 +36°C° 0 mm 3 m/s 755 mmHg 33%
    17:00 +35°C° 0 mm 3 m/s 755 mmHg 34%
    18:00 +34°C° 0 mm 3 m/s 755 mmHg 38%
    19:00 +33°C° 0 mm 3 m/s 755 mmHg 41%
    20:00 +32°C° 0 mm 4 m/s 756 mmHg 45%
    21:00 +32°C° 0 mm 4 m/s 756 mmHg 47%
    22:00 +30°C° 0 mm 4 m/s 756 mmHg 48%
    23:00 +30°C° 0 mm 4 m/s 756 mmHg 50%

    22 Ianuarie, Marţi

    Timp Temperatura Precipitaţii Vânt Presiune Umiditate
    00:00 +29°C° 0 mm 4 m/s 756 mmHg 51%
    01:00 +29°C° 0 mm 4 m/s 756 mmHg 53%
    02:00 +28°C° 0 mm 3 m/s 756 mmHg 54%
    03:00 +28°C° 0 mm 4 m/s 756 mmHg 57%
    04:00 +27°C° 0 mm 4 m/s 756 mmHg 60%
    05:00 +27°C° 0 mm 4 m/s 756 mmHg 62%
    06:00 +28°C° 0 mm 4 m/s 756 mmHg 60%
    07:00 +29°C° 0 mm 4 m/s 757 mmHg 58%
    08:00 +30°C° 0 mm 4 m/s 757 mmHg 56%
    09:00 +31°C° 0 mm 3 m/s 756 mmHg 50%
    10:00 +34°C° 0 mm 3 m/s 756 mmHg 44%
    11:00 +35°C° 0 mm 3 m/s 756 mmHg 38%
    12:00 +36°C° 0 mm 3 m/s 755 mmHg 36%
    13:00 +37°C° 0 mm 3 m/s 755 mmHg 34%
    14:00 +38°C° 0 mm 3 m/s 754 mmHg 32%
    15:00 +37°C° 0 mm 4 m/s 754 mmHg 34%
    16:00 +37°C° 0 mm 4 m/s 753 mmHg 35%
    17:00 +37°C° 0 mm 5 m/s 753 mmHg 37%
    18:00 +36°C° 0 mm 4 m/s 753 mmHg 41%
    19:00 +35°C° 0 mm 4 m/s 754 mmHg 45%
    20:00 +34°C° 0 mm 4 m/s 754 mmHg 49%
    21:00 +33°C° 0 mm 3 m/s 754 mmHg 53%
    22:00 +33°C° 0 mm 3 m/s 755 mmHg 57%
    23:00 +31°C° 0 mm 3 m/s 756 mmHg 60%

    23 Ianuarie, Miercuri

    Timp Temperatura Precipitaţii Vânt Presiune Umiditate
    00:00 +30°C° 0 mm 2 m/s 756 mmHg 62%
    01:00 +30°C° 0 mm 2 m/s 756 mmHg 64%
    02:00 +29°C° 0 mm 1 m/s 756 mmHg 66%
    03:00 +28°C° 0.1 mm 2 m/s 756 mmHg 69%
    04:00 +28°C° 0.1 mm 2 m/s 756 mmHg 72%
    05:00 +27°C° 0.1 mm 3 m/s 756 mmHg 75%
    06:00 +27°C° 0 mm 4 m/s 757 mmHg 74%
    07:00 +27°C° 0 mm 4 m/s 757 mmHg 74%
    08:00 +27°C° 0 mm 5 m/s 757 mmHg 74%
    09:00 +28°C° 0.3 mm 5 m/s 757 mmHg 71%
    10:00 +29°C° 0.3 mm 5 m/s 757 mmHg 68%
    11:00 +30°C° 0.3 mm 5 m/s 757 mmHg 66%
    12:00 +33°C° 0 mm 5 m/s 757 mmHg 59%
    13:00 +34°C° 0 mm 5 m/s 756 mmHg 53%
    14:00 +36°C° 0 mm 5 m/s 756 mmHg 47%
    15:00 +35°C° 0 mm 6 m/s 755 mmHg 50%
    16:00 +34°C° 0 mm 6 m/s 755 mmHg 54%
    17:00 +33°C° 0 mm 7 m/s 755 mmHg 57%
    18:00 +30°C° 0 mm 6 m/s 755 mmHg 63%
    19:00 +29°C° 0 mm 6 m/s 756 mmHg 68%
    20:00 +28°C° 0 mm 6 m/s 756 mmHg 74%
    21:00 +28°C° 0 mm 6 m/s 756 mmHg 76%
    22:00 +28°C° 0 mm 5 m/s 756 mmHg 78%
    23:00 +28°C° 0 mm 5 m/s 756 mmHg 80%
    Arată mai mult